FW5866 Weather Reports


Display with metric or nautical units.
time (UTC)temp
F
wind
direction
speed
MPH
gust
MPH
rain 1hr
in
rain 24hr
in
rain mn
in
humidity
%
barometer
mb
20260509204553 68 0 1.0 7.0 0.10 0.93 0.70 97 1012.8
20260509203050 68 70 1.0 8.0 0.19 0.91 0.68 97 1013.1
20260509201545 68 0 0.0 3.0 0.18 0.90 0.67 97 1012.7
20260509200101 68 0 0.0 10.0 0.17 0.88 0.65 97 1012.8
20260509194557 68 61 2.0 7.0 0.13 0.97 0.58 97 1013.1
20260509193053 68 0 0.0 5.0 0.15 0.87 0.49 97 1013.1
20260509191547 68 93 0.0 6.0 0.17 0.87 0.49 97 1012.6
20260509190054 68 0 1.0 9.0 0.20 0.86 0.48 97 1012.6
20260509184633 67 140 1.0 8.0 0.20 1.09 0.45 97 1012.7
20260509183058 67 53 1.0 8.0 0.14 0.98 0.34 96 1012.6
20260509181548 67 144 1.0 8.0 0.30 0.96 0.32 96 1013.1
20260509180100 67 52 1.0 5.0 0.26 0.92 0.28 96 1013.3
20260509174549 67 69 1.0 7.0 0.23 0.99 0.25 96 1013.3
20260509173054 67 0 0.0 12.0 0.19 0.93 0.19 95 1012.6
20260509171546 67 51 1.0 4.0 0.02 0.76 0.02 95 1013.0
20260509170058 68 0 0.0 6.0 0.02 0.76 0.02 95 1013.2
20260509164551 68 0 0.0 4.0 0.02 0.92 0.02 95 1012.9
20260509163105 69 0 2.0 11.0 0.00 0.90 0.00 95 1013.0
20260509161547 68 0 1.0 13.0 0.00 0.90 0.00 95 1013.1
20260509160049 68 54 3.0 11.0 0.00 0.90 0.00 95 1013.3
20260509154546 69 120 1.0 7.0 0.00 1.03 0.00 96 1013.3
20260509153044 68 0 1.0 5.0 0.00 1.03 0.00 96 1013.3
20260509151555 67 9 1.0 10.0 0.00 1.03 0.00 96 1013.0
20260509150054 67 0 0.0 7.0 0.00 1.03 0.00 96 1013.2
20260509144549 67 113 1.0 9.0 0.00 1.22 0.00 96 1013.0
20260509143050 67 62 3.0 14.0 0.00 1.22 0.00 96 1012.8
20260509141555 68 72 7.0 12.0 0.00 1.22 0.00 96 1012.6
20260509140057 68 76 1.0 9.0 0.00 1.22 0.00 96 1012.8
20260509134545 68 46 1.0 5.0 0.00 1.22 0.00 96 1012.6
20260509133048 68 49 2.0 8.0 0.00 1.22 0.00 96 1012.4
20260509131548 69 0 2.0 9.0 0.00 1.22 0.00 96 1012.4
20260509130051 71 0 2.0 8.0 0.00 1.22 0.00 96 1012.4
20260509124558 72 49 1.0 5.0 0.00 1.22 0.00 96 1012.6
20260509123054 72 0 0.0 3.0 0.00 1.22 0.00 96 1012.1
20260509121551 72 0 0.0 1.0 0.00 1.22 0.00 97 1011.9
20260509120048 72 5 0.0 0.0 0.00 1.22 0.00 97 1011.9
20260509114550 72 0 0.0 0.0 0.00 1.22 0.00 96 1011.9
20260509113106 72 0 0.0 0.0 0.00 1.22 0.00 96 1011.8
20260509111549 72 0 0.0 0.0 0.00 1.22 0.00 96 1011.5
20260509110048 72 0 0.0 0.0 0.00 1.22 0.00 97 1011.3
20260509104556 72 0 0.0 0.0 0.00 1.22 0.00 96 1010.9
20260509103055 72 0 0.0 0.0 0.00 1.22 0.00 96 1011.1
20260509101549 72 0 0.0 0.0 0.00 1.22 0.00 96 1010.8
20260509100109 71 0 0.0 0.0 0.00 1.22 0.00 96 1010.7
20260509094554 71 0 0.0 0.0 0.00 1.22 0.00 96 1010.5
20260509093052 71 0 0.0 1.0 0.00 1.22 0.00 96 1010.6
20260509091602 71 0 0.0 2.0 0.00 1.22 0.00 96 1010.6
20260509090044 71 0 0.0 2.0 0.00 1.22 0.00 96 1010.6
20260509084547 71 130 0.0 1.0 0.00 1.22 0.00 96 1010.7
20260509083046 71 0 0.0 1.0 0.00 1.22 0.00 96 1010.6
20260509081556 70 0 0.0 1.0 0.00 1.22 0.00 96 1010.7
20260509080051 70 0 0.0 0.0 0.00 1.22 0.00 96 1010.9
20260509074549 70 0 0.0 1.0 0.00 1.22 0.00 96 1011.1
20260509073049 70 0 0.0 1.0 0.00 1.22 0.00 96 1011.4
20260509071548 70 0 0.0 0.0 0.00 1.22 0.00 96 1011.5
20260509070051 70 0 0.0 4.0 0.00 1.22 0.00 96 1011.8
20260509064550 70 161 0.0 2.0 0.00 1.22 0.00 96 1012.0
20260509063056 69 0 0.0 1.0 0.00 1.22 0.00 96 1012.2
20260509061605 69 0 0.0 0.0 0.00 1.22 0.00 96 1012.0
20260509060047 69 0 0.0 1.0 0.00 1.22 0.00 96 1012.3
20260509054557 69 0 0.0 2.0 0.00 1.22 0.00 96 1012.7
20260509053058 70 148 0.0 4.0 0.00 1.22 0.00 96 1012.7
20260509051551 70 115 0.0 2.0 0.00 1.22 0.00 96 1013.0
20260509050052 70 85 0.0 0.0 0.00 1.22 0.00 96 1012.8
20260509044547 70 0 0.0 0.0 0.00 1.22 1.22 96 1013.2
20260509043045 70 0 0.0 0.0 0.00 1.22 1.22 95 1013.2
20260509041547 70 0 0.0 1.0 0.00 1.22 1.22 95 1013.6
20260509040045 70 0 0.0 1.0 0.00 1.22 1.22 96 1013.1
20260509034554 70 0 0.0 2.0 0.00 1.22 1.22 95 1012.9
20260509033046 70 0 0.0 0.0 0.00 1.22 1.22 96 1012.7
20260509031549 70 0 0.0 0.0 0.00 1.22 1.22 95 1013.0
20260509030049 70 0 0.0 2.0 0.00 1.22 1.22 96 1013.1
20260509024542 70 320 0.0 4.0 0.00 1.22 1.22 96 1013.4
20260509023047 70 53 0.0 4.0 0.00 1.22 1.22 96 1012.9
20260509021547 70 0 0.0 3.0 0.00 1.22 1.22 96 1012.1
20260509020044 70 138 0.0 4.0 0.00 1.22 1.22 96 1011.6
20260509014549 70 0 0.0 2.0 0.00 1.22 1.22 95 1012.1
20260509013045 70 0 0.0 1.0 0.00 1.22 1.22 95 1012.2
20260509011553 70 53 0.0 2.0 0.00 1.22 1.22 95 1012.1
20260509010051 71 0 0.0 3.0 0.00 1.22 1.22 96 1012.3
20260509004549 71 0 0.0 0.0 0.00 1.22 1.22 96 1011.7
20260509003052 71 0 0.0 2.0 0.00 1.22 1.22 95 1012.4
20260509001549 71 0 0.0 3.0 0.00 1.22 1.22 96 1012.6
20260509000044 71 141 0.0 4.0 0.00 1.22 1.22 96 1012.2
20260508234554 70 59 0.0 1.0 0.00 1.22 1.22 96 1011.7
20260508233054 70 0 0.0 2.0 0.00 1.22 1.22 95 1011.8
20260508231622 71 0 0.0 3.0 0.00 1.22 1.22 95 1012.2
20260508230059 71 0 0.0 2.0 0.00 1.22 1.22 95 1012.2
20260508224550 71 0 0.0 2.0 0.00 1.22 1.22 96 1012.3
20260508223049 70 0 0.0 2.0 0.00 1.22 1.22 96 1011.9
20260508221550 70 0 1.0 4.0 0.02 1.22 1.22 96 1011.9
20260508220048 70 121 0.0 5.0 0.03 1.22 1.22 96 1012.1
20260508214618 69 64 0.0 3.0 0.04 1.22 1.22 95 1012.8
20260508213053 69 0 0.0 3.0 0.12 1.22 1.22 95 1013.0
20260508211544 69 0 0.0 4.0 0.21 1.20 1.20 95 1013.3
20260508210054 69 0 0.0 1.0 0.20 1.19 1.19 96 1013.0